GW3808 Weather Reports


time (UTC)temp
C
wind
direction
speed
KPH
gust
KPH
rain 1hr
cm
rain 24hr
cm
rain mn
cm
humidity
%
barometer
mb
20260509064942 22 320 0.0 0.0 0.00 0.00 0.00 98 1007.8
20260509064442 22 341 0.0 0.0 0.00 0.00 0.00 98 1007.8
20260509063442 22 277 0.0 0.0 0.00 0.00 0.00 97 1007.8
20260509062442 22 306 0.0 0.0 0.00 0.00 0.00 97 1007.8
20260509061442 22 329 0.0 0.0 0.00 0.00 0.00 97 1007.8
20260509060942 22 319 0.0 0.0 0.00 0.00 0.00 97 1008.1
20260509054942 22 300 0.0 0.0 0.00 0.00 0.00 97 1008.1
20260509053942 22 319 0.0 0.0 0.00 0.00 0.00 97 1008.1
20260509053443 22 316 0.0 0.0 0.00 0.00 0.00 97 1008.8
20260509052442 22 332 0.0 0.0 0.00 0.00 0.00 97 1008.8
20260509051942 22 1 0.0 0.0 0.00 0.00 0.00 97 1008.8
20260509045942 22 312 0.0 0.0 0.00 0.00 0.00 97 1008.5
20260509045442 22 311 0.0 0.0 0.00 0.00 0.00 97 1008.1
20260509044942 22 312 0.0 0.0 0.00 0.00 0.00 97 1008.1
20260509043942 22 345 0.0 0.0 0.00 0.00 0.00 96 1008.1
20260509042942 22 306 0.0 0.0 0.00 0.00 0.00 96 1008.1
20260509042442 22 322 0.0 0.0 0.00 0.00 0.00 96 1007.8
20260509041442 22 311 0.0 0.0 0.00 0.00 0.00 95 1007.8
20260509040942 22 324 0.0 0.0 0.00 0.00 0.00 95 1007.8
20260509035942 22 358 0.0 0.0 0.00 0.00 0.00 94 1007.8
20260509034942 22 263 0.0 0.0 0.00 0.00 0.00 94 1007.5
20260509034442 22 330 0.0 0.0 0.00 0.00 0.00 94 1007.5
20260509033443 22 336 0.0 0.0 0.00 0.00 0.00 94 1007.5
20260509031443 23 335 0.0 0.0 0.00 0.00 0.00 93 1007.8
20260509030442 23 322 0.0 0.0 0.00 0.00 0.00 92 1007.8
20260509025942 23 331 0.0 0.0 0.00 0.00 0.00 92 1007.8
20260509024942 23 330 0.0 0.0 0.00 0.00 0.00 91 1007.5
20260509022942 23 314 0.0 0.0 0.00 0.00 0.00 90 1007.1
20260509021942 23 317 0.0 0.0 0.00 0.00 0.00 90 1007.1
20260509020942 23 324 0.0 0.0 0.00 0.00 0.00 90 1007.1
20260509015942 23 318 0.0 0.0 0.00 0.00 0.00 89 1006.8
20260509014942 23 335 0.0 0.0 0.00 0.00 0.00 89 1006.4
20260509014442 23 346 0.0 0.0 0.00 0.00 0.00 88 1006.8
20260509012442 23 322 0.0 0.0 0.00 0.00 0.00 87 1006.8
20260509011942 23 336 0.0 0.0 0.00 0.00 0.00 87 1006.4
20260509011442 24 315 0.0 0.0 0.00 0.00 0.00 87 1006.4
20260509010942 24 325 0.0 0.0 0.00 0.00 0.00 87 1006.4
20260509005943 24 323 0.0 0.0 0.00 0.00 0.00 86 1006.4
20260509005442 24 236 0.0 0.0 0.00 0.00 0.00 86 1006.4
20260509004442 24 333 0.0 0.0 0.00 0.00 0.00 85 1006.4
20260509003442 25 290 0.0 0.0 0.00 0.00 0.00 84 1006.4
20260509002442 25 336 0.0 0.0 0.00 0.00 0.00 84 1006.4
20260509001442 25 13 0.0 0.0 0.00 0.00 0.00 82 1006.4
20260509000942 25 316 0.0 0.0 0.00 0.00 0.00 82 1006.1
20260508235442 26 359 0.0 0.0 0.00 0.00 0.00 81 1006.1
20260508233942 26 325 0.0 0.0 0.00 0.00 0.00 79 1006.1
20260508232942 26 169 0.0 0.0 0.00 0.00 0.00 78 1006.1
20260508230942 26 315 0.0 0.0 0.00 0.00 0.00 77 1006.1
20260508230442 26 56 0.0 0.0 0.00 0.00 0.00 78 1006.1
20260508225942 26 329 0.0 0.0 0.00 0.00 0.00 78 1006.4
20260508225442 26 331 0.0 0.0 0.00 0.00 0.00 78 1006.4
20260508224442 26 336 0.0 0.0 0.00 0.00 0.00 80 1006.4
20260508223942 25 304 0.0 0.0 0.00 0.00 0.00 80 1006.8
20260508222942 25 341 1.6 1.6 0.00 0.00 0.00 82 1006.8
20260508221942 25 301 1.6 1.6 0.00 0.00 0.00 82 1006.8
20260508221442 25 317 1.6 1.6 0.00 0.00 0.00 80 1006.8
20260508220442 25 296 0.0 0.0 0.00 0.00 0.00 80 1007.1
20260508215443 25 341 0.0 0.0 0.00 0.00 0.00 80 1007.1
20260508214942 25 260 0.0 0.0 0.00 0.00 0.00 80 1007.1
20260508213942 25 302 1.6 1.6 0.00 0.00 0.00 81 1006.8
20260508212942 25 323 0.0 0.0 0.00 0.00 0.00 80 1007.1
20260508211942 25 357 0.0 0.0 0.00 0.00 0.00 78 1007.1
20260508211442 25 58 0.0 0.0 0.00 0.00 0.00 78 1007.1
20260508210942 25 8 0.0 0.0 0.00 0.00 0.00 79 1007.5
20260508205943 25 316 0.0 0.0 0.00 0.00 0.00 77 1007.5
20260508204942 25 18 0.0 0.0 0.00 0.00 0.00 76 1007.5
20260508204442 25 51 0.0 0.0 0.00 0.00 0.00 76 1007.8
20260508203942 25 25 0.0 0.0 0.00 0.00 0.00 75 1007.5
20260508203442 25 335 0.0 0.0 0.00 0.00 0.00 77 1007.8
20260508202442 25 353 0.0 0.0 0.00 0.00 0.00 75 1007.8
20260508201942 25 7 0.0 0.0 0.00 0.00 0.00 75 1007.8
20260508200942 25 308 0.0 0.0 0.00 0.00 0.00 73 1007.8
20260508194442 23 17 0.0 0.0 0.00 0.00 0.00 78 1008.1
20260508193442 25 173 1.6 1.6 0.00 0.00 0.00 74 1008.1
20260508192942 25 4 1.6 1.6 0.00 0.00 0.00 73 1008.5
20260508191442 24 248 0.0 0.0 0.00 0.00 0.00 75 1008.1
20260508190942 24 294 0.0 0.0 0.00 0.00 0.00 75 1008.5
20260508185942 24 213 0.0 0.0 0.00 0.00 0.00 74 1008.8
20260508185442 24 318 0.0 0.0 0.00 0.00 0.00 74 1008.8
20260508184442 23 325 0.0 0.0 0.00 0.00 0.00 75 1008.8
20260508183942 23 357 0.0 0.0 0.00 0.00 0.00 75 1008.8
20260508183442 23 313 0.0 0.0 0.00 0.00 0.00 75 1008.8
20260508182942 23 5 0.0 0.0 0.00 0.00 0.00 76 1009.1
20260508182442 22 321 0.0 0.0 0.00 0.00 0.00 76 1009.1
20260508181942 22 329 0.0 0.0 0.00 0.00 0.00 77 1009.5
20260508181442 22 290 0.0 0.0 0.00 0.00 0.00 77 1009.5
20260508180442 22 141 0.0 0.0 0.00 0.00 0.00 77 1009.5
20260508174942 22 344 0.0 0.0 0.00 0.00 0.00 75 1009.8
20260508173442 22 327 0.0 0.0 0.00 0.00 0.00 76 1009.8
20260508172942 22 244 0.0 0.0 0.00 0.00 0.00 76 1009.5
20260508172442 22 352 0.0 0.0 0.00 0.00 0.00 75 1009.8
20260508171942 22 312 0.0 0.0 0.00 0.00 0.00 75 1009.8
20260508170942 22 197 0.0 0.0 0.00 0.00 0.00 76 1009.8
20260508170442 21 1 0.0 0.0 0.00 0.00 0.00 75 1009.8
20260508165942 21 356 0.0 0.0 0.00 0.00 0.00 76 1010.2
20260508164942 21 298 0.0 0.0 0.00 0.00 0.00 77 1010.2
20260508162942 20 213 0.0 0.0 0.00 0.00 0.00 78 1009.8
20260508160942 20 236 0.0 0.0 0.00 0.00 0.00 78 1010.5
20260508155942 20 303 0.0 0.0 0.00 0.00 0.00 79 1010.5
20260508154942 20 337 0.0 0.0 0.00 0.00 0.00 80 1010.8
20260508154442 19 204 0.0 0.0 0.00 0.00 0.00 80 1010.8
20260508152942 20 335 0.0 0.0 0.00 0.00 0.00 79 1010.8
20260508151942 20 309 0.0 0.0 0.00 0.00 0.00 80 1010.8
20260508151442 19 174 0.0 0.0 0.00 0.00 0.00 82 1010.8
20260508150942 18 353 0.0 0.0 0.00 0.00 0.00 83 1010.8
20260508145942 17 221 0.0 0.0 0.00 0.00 0.00 86 1011.2
20260508145442 17 108 0.0 0.0 0.00 0.00 0.00 85 1011.2
20260508144442 17 337 0.0 0.0 0.00 0.00 0.00 86 1011.2
20260508142942 17 63 0.0 0.0 0.00 0.00 0.00 86 1011.2
20260508141942 17 15 0.0 0.0 0.00 0.00 0.00 86 1011.2
20260508141442 17 4 0.0 0.0 0.00 0.00 0.00 86 1011.2
20260508140942 17 86 0.0 0.0 0.00 0.00 0.00 86 1011.2
20260508135942 17 310 0.0 0.0 0.00 0.00 0.00 87 1011.2
20260508134942 17 99 0.0 0.0 0.00 0.00 0.00 88 1011.2
20260508134442 16 321 0.0 0.0 0.00 0.00 0.00 88 1010.8
20260508133942 16 339 0.0 0.0 0.00 0.00 0.00 89 1011.2
20260508133442 16 167 0.0 0.0 0.00 0.00 0.00 89 1011.2
20260508132442 16 79 0.0 0.0 0.00 0.00 0.00 89 1011.2
20260508131942 16 343 0.0 0.0 0.00 0.00 0.00 90 1011.2
20260508130952 16 260 0.0 0.0 0.00 0.00 0.00 90 1011.2
20260508130442 16 58 0.0 0.0 0.00 0.00 0.00 89 1011.2
20260508125442 16 24 0.0 0.0 0.00 0.00 0.00 89 1010.8
20260508124942 16 306 0.0 0.0 0.00 0.00 0.00 89 1011.2
20260508123442 16 54 0.0 0.0 0.00 0.00 0.00 87 1011.2
20260508122942 16 168 0.0 0.0 0.00 0.00 0.00 87 1011.2
20260508122442 16 303 0.0 0.0 0.00 0.00 0.00 87 1011.5
20260508121942 16 26 0.0 0.0 0.00 0.00 0.00 87 1011.2
20260508120442 16 282 1.6 1.6 0.00 0.00 0.00 86 1010.8
20260508114442 16 346 0.0 0.0 0.00 0.00 0.00 87 1010.8
20260508113442 16 274 0.0 0.0 0.00 0.00 0.00 86 1010.8
20260508112942 16 114 0.0 0.0 0.00 0.00 0.00 85 1010.8
20260508112442 16 9 0.0 0.0 0.00 0.00 0.00 85 1010.8
20260508110442 16 11 0.0 0.0 0.00 0.00 0.00 84 1012.2
20260508105442 16 2 0.0 0.0 0.00 0.00 0.00 84 1011.9
20260508104442 16 263 0.0 0.0 0.00 0.00 0.00 84 1011.5
20260508103442 16 57 1.6 1.6 0.00 0.00 0.00 84 1011.2
20260508101442 16 187 0.0 0.0 0.00 0.00 0.00 85 1010.8
20260508100942 16 347 0.0 0.0 0.00 0.00 0.00 85 1010.8
20260508100442 16 311 0.0 0.0 0.00 0.00 0.00 84 1010.8
20260508095442 17 13 0.0 0.0 0.00 0.00 0.00 83 1010.8
20260508094942 17 35 0.0 0.0 0.00 0.00 0.00 82 1010.5
20260508093942 17 353 0.0 0.0 0.00 0.00 0.00 81 1011.5
20260508092442 17 153 0.0 0.0 0.00 0.00 0.00 80 1011.2
20260508091942 17 331 0.0 0.0 0.00 0.00 0.00 80 1011.5
20260508091442 17 11 0.0 0.0 0.00 0.00 0.00 80 1011.9
20260508090442 17 293 0.0 0.0 0.00 0.00 0.00 80 1011.9
20260508085942 17 10 0.0 0.0 0.00 0.00 0.00 80 1011.9
20260508084942 17 83 0.0 0.0 0.00 0.00 0.00 80 1011.2
20260508083942 17 53 0.0 0.0 0.00 0.00 0.00 80 1011.2
20260508082942 17 357 0.0 0.0 0.00 0.00 0.00 80 1011.2
20260508081942 17 341 0.0 0.0 0.00 0.00 0.00 79 1010.8
20260508080942 17 32 0.0 0.0 0.00 0.00 0.00 79 1011.9
20260508075942 17 320 0.0 0.0 0.00 0.00 0.00 78 1011.5
20260508074942 17 195 0.0 0.0 0.00 0.00 0.00 78 1011.9
20260508074442 17 311 0.0 0.0 0.00 0.00 0.00 78 1011.9
20260508073442 17 45 0.0 0.0 0.00 0.00 0.00 78 1012.2
20260508072942 17 21 0.0 0.0 0.00 0.00 0.00 78 1012.2
20260508071942 17 26 0.0 0.0 0.00 0.00 0.00 78 1011.9
20260508070942 17 45 1.6 1.6 0.00 0.00 0.00 77 1012.2
20260508065942 17 13 1.6 1.6 0.00 0.00 0.00 77 1012.2